Simultaneous Nadir Overpasses (SNOs) Predictions

Prediction of SNOs between AQUA and NOAA-19 Satellite Orbit:

Table of predicted SNOs for the next 14.0 days since TLE Epoch: 3/26/2022
Index Date (AQUA) Time (AQUA) Lat,Lon (AQUA) SZA (AQUA ) Date (NOAA-19) Time (NOAA-19) Lat,Lon (NOAA-19) SZA (NOAA-19 ) Distance(km) Time Diff (sec)
1 03/26/2022 03:21:28 77.88, 111.83 76.34 03/26/2022 03:21:40 77.89, 111.88 76.34 2.00 12
2 03/28/2022 08:55:02 -77.86,-151.49 104.57 03/28/2022 08:54:45 -77.87,-151.42 104.56 2.00 17
3 03/28/2022 09:44:30 77.90, 15.97 75.47 03/28/2022 09:45:40 77.90, 16.02 75.45 1.04 70
4 03/30/2022 14:28:37 77.84, -54.78 74.52 03/30/2022 14:27:42 77.83, -54.80 74.54 0.95 55
5 03/30/2022 15:18:04 -77.89, 112.62 105.42 03/30/2022 15:18:46 -77.86, 112.59 105.47 3.92 42
6 04/01/2022 20:02:03 -77.48, 43.36 106.79 04/01/2022 20:00:58 -77.41, 39.81 106.58 86.19 65
7 04/01/2022 20:51:38 77.84,-150.55 73.65 04/01/2022 20:51:42 77.84,-150.68 73.65 3.20 4
8 04/04/2022 02:25:11 -77.81, -53.79 107.26 04/04/2022 02:24:48 -77.82, -53.97 107.24 4.14 23
9 04/04/2022 03:14:39 77.86, 113.62 72.79 04/04/2022 03:15:41 77.88, 113.64 72.79 1.84 62
10 04/06/2022 07:58:44 77.80, 42.90 71.86 04/06/2022 07:57:42 77.80, 42.79 71.90 2.54 62
11 04/06/2022 08:48:11 -77.84,-149.66 108.10 04/06/2022 08:48:47 -77.83,-149.81 108.11 3.58 36
12 04/08/2022 14:21:45 77.84, -53.05 71.06 04/08/2022 14:21:41 77.84, -52.91 71.05 3.21 4



Historial Predications of SNOs between AQUA and NOAA-19
